Regional Weather Roundup
Issued by NWS

Home | Current Version | Previous Version | Text Only | Print | Product List | Glossary On
Versions: 1 2 3 4 5 6 7 8 9 10 11 12 13 14 15 16 17 18 19 20 21 22 23 24 25 26 27 28 29 30 31 32 33 34 35 36 37 38 39 40 41 42 43 44 45 46 47 48 49 50
000
ASUS43 KFSD 300210
RWRSD

WEATHER ROUNDUP FOR SOUTH DAKOTA
NATIONAL WEATHER SERVICE SIOUX FALLS SD
800 PM CST THU JAN 29 2015

NOTE: "FAIR" INDICATES FEW OR NO CLOUDS BELOW 12,000 FEET WITH NO
SIGNIFICANT WEATHER AND/OR OBSTRUCTIONS TO VISIBILITY.


SDZ001>005-009-010-012>017-300300-
NORTHWEST AND NORTH CENTRAL SOUTH DAKOTA

CITY           SKY/WX    TMP DP  RH WIND       PRES   REMARKS
BUFFALO          N/A     31  10  41 SE9       30.29F WCI  23
FAITH            N/A     28  14  55 SE9       30.40F WCI  19
MOBRIDGE       CLEAR     27  20  75 E9        30.44S WCI  18
$$

SDZ012>016-024>037-041>051-057-063-072>074-300300-
SOUTHWEST AND SOUTH CENTRAL SOUTH DAKOTA

CITY           SKY/WX    TMP DP  RH WIND       PRES   REMARKS
RAPID CTY ARPT CLEAR     26  14  60 CALM      30.38F
PIERRE         CLEAR     25  20  81 E8        30.46S WCI  16
CUSTER         CLEAR     29  16  58 SW5       30.33F WCI  24
ELLSWORTH AFB  CLEAR     32  14  47 S7        30.37F WCI  25
PHILIP         CLEAR     27  17  66 CALM      30.44R
PINE RIDGE     CLEAR     25  11  55 NE7       30.40F WCI  17
WINNER         FAIR      27  19  72 SE8       30.47S WCI  19
$$

SDZ004>011-016>023-039-040-300300-
NORTHEAST SOUTH DAKOTA

CITY           SKY/WX    TMP DP  RH WIND       PRES   REMARKS
ABERDEEN       CLOUDY    22  15  75 N9        30.54R WCI  12
WATERTOWN      CLOUDY    20  14  77 N10       30.49R WCI   9
SISSETON         N/A     17  11  77 N7        30.54R WCI   8
$$

SDZ017-020-022-023-036>040-048>070-300300-
SOUTHEAST SOUTH DAKOTA

CITY           SKY/WX    TMP DP  RH WIND       PRES   REMARKS
SIOUX FALLS    CLOUDY    24  17  74 NW9       30.52R WCI  14
HURON          CLEAR     22  18  85 NE8       30.52S WCI  12
CHAMBERLAIN    CLEAR     22  18  85 SE3       30.49S
MITCHELL       CLEAR     23  19  85 NE3       30.54R
YANKTON        CLEAR     25  19  80 N7        30.54S WCI  17
$$

ABBREVIATIONS USED IN REMARKS
   TC - TEMPERATURE IN CELSIUS
  WCI - WIND CHILL INDEX
   HX - HEAT INDEX
  VSB - VISIBILITY




USA.gov is the U.S. government's official web portal to all federal, state and local government web resources and services.